Theta_e
327 326 321 315 313 316 318 319 317 330 337 333 333 331 335 335 333 329 332 333 333 332 331 331 331 328 327 325 324 324 324 323 323 323 322 321 321 322 321 321 322 324 325 324 324 322 321 322 321
325 324 318 310 313 318 318 318 322 333 334 330 331 333 334 336 332 331 333 334 332 331 331 332 330 328 326 323 323 323 322 322 322 321 321 320 321 320 321 321 321 322 324 324 323 322 321 321 321
324 321 319 311 311 317 323 324 330 332 331 329 335 332 335 335 332 333 334 333 332 331 332 331 329 327 325 320 319 320 320 321 321 320 319 319 320 320 320 320 320 322 325 324 322 322 321 321 321
324 321 312 313 315 315 324 321 324 330 328 331 332 338 335 336 334 334 334 332 331 331 333 330 328 327 324 318 315 318 320 320 319 319 318 318 319 320 320 320 320 321 324 324 322 322 321 321 321
323 317 317 314 315 315 314 315 321 327 331 331 330 336 336 335 334 333 333 332 330 332 332 330 328 325 322 317 313 315 318 318 318 318 318 318 319 320 319 319 320 320 320 321 322 321 320 320 320
327 316 316 317 315 314 316 317 326 330 329 330 332 334 335 334 334 333 332 331 331 332 331 329 326 321 315 314 314 313 312 317 317 317 318 318 318 318 318 318 319 320 320 320 320 320 320 319 318
328 318 319 314 314 315 315 316 321 326 328 330 327 335 335 331 332 333 332 331 332 332 330 327 321 315 315 315 314 313 311 312 314 314 314 314 314 315 315 318 318 319 319 320 319 319 319 318 317
323 319 322 316 314 316 315 321 323 326 327 321 322 334 336 331 330 332 332 332 331 330 327 320 317 316 315 314 314 313 312 312 313 313 314 314 314 314 314 315 316 318 319 320 319 318 318 316 316
320 322 322 322 314 313 314 325 324 323 325 325 322 326 331 329 329 330 330 329 328 326 322 318 318 315 314 314 314 313 312 313 313 313 313 312 314 314 313 314 315 316 317 318 318 315 315 315 315
326 325 324 316 311 313 314 320 325 327 327 328 329 329 329 328 328 327 326 325 323 322 319 316 317 316 314 315 314 313 312 312 312 312 311 311 312 313 312 313 314 315 316 317 316 315 315 315 315
318 329 314 313 312 312 315 317 319 325 329 327 331 330 329 328 328 327 326 326 326 324 321 318 316 315 314 315 314 312 312 311 311 310 311 311 311 311 312 312 314 315 315 316 315 314 315 314 313
318 314 313 312 311 313 315 316 318 316 319 317 330 329 329 329 327 327 326 326 325 323 321 318 317 316 314 314 313 312 312 311 310 310 310 310 310 310 311 311 312 314 314 316 315 314 314 312 306
315 313 312 311 311 311 313 315 318 318 317 322 324 326 329 329 327 328 327 326 324 323 322 320 318 316 315 314 313 312 312 311 310 310 310 310 310 310 310 311 312 313 314 316 314 314 313 309 310
313 312 312 311 311 311 314 314 313 316 316 323 325 325 323 326 325 326 327 326 324 322 321 322 317 316 315 314 313 312 312 311 310 310 310 310 310 310 310 311 311 312 313 316 314 314 314 311 311
314 316 314 312 312 312 311 314 314 313 316 323 323 321 321 322 323 324 327 327 326 324 319 318 317 315 314 314 312 312 311 311 310 310 310 310 310 310 310 310 310 311 312 314 315 313 313 312 310
319 319 325 317 312 311 313 320 312 313 315 319 319 318 314 314 317 320 322 326 326 324 317 315 315 315 315 313 312 312 311 310 310 309 309 309 310 310 310 310 310 310 311 312 314 313 312 310 308
322 327 325 323 313 312 313 317 313 312 315 316 314 314 313 312 313 314 317 321 324 322 318 315 314 314 313 312 312 311 311 310 309 308 308 308 309 309 309 309 309 309 311 311 313 313 311 308 302
326 325 322 323 318 313 313 313 311 312 314 316 315 313 312 312 312 314 314 316 318 321 317 315 314 314 313 312 312 311 310 309 308 309 307 307 307 308 308 308 307 308 310 311 311 312 308 306 301
321 321 322 320 317 315 315 314 314 311 311 312 313 313 313 313 313 313 314 314 314 314 318 315 314 313 313 311 311 310 309 308 308 309 307 307 306 307 307 307 307 307 309 310 310 309 306 302 300
320 321 322 320 316 316 316 316 316 313 311 312 313 312 312 312 309 310 312 312 312 313 313 315 313 313 313 312 312 311 310 308 307 308 307 306 306 306 306 306 306 306 306 308 308 308 303 302 303
316 319 319 319 316 314 312 312 313 312 312 311 310 310 310 311 311 308 308 310 311 311 311 312 313 313 313 312 312 310 310 308 307 307 307 306 304 305 305 305 305 305 304 306 306 308 305 304 303
315 313 316 318 315 317 312 316 314 312 311 311 311 309 309 307 308 308 308 308 309 310 310 311 312 312 312 312 311 311 311 309 309 307 306 306 304 303 303 303 304 303 303 303 305 307 307 304 304
315 312 313 314 314 315 314 313 314 310 312 312 311 309 309 307 307 308 308 309 309 309 310 310 311 312 312 312 312 311 310 310 309 307 306 305 303 301 301 301 301 302 302 302 301 304 307 305 304
311 312 309 309 310 309 312 313 314 313 313 313 311 310 309 307 305 306 308 308 308 308 309 309 310 310 311 311 311 311 311 311 309 307 305 305 302 300 299 299 299 299 299 299 298 301 303 305 304
311 312 310 306 309 310 311 313 313 311 310 310 309 308 306 305 305 305 304 305 306 307 308 308 308 309 310 310 310 310 310 310 309 308 307 305 304 301 299 298 297 297 296 296 295 295 299 300 300
312 312 310 310 313 312 311 313 311 309 307 306 305 304 304 304 304 304 303 304 305 306 307 307 308 308 308 308 308 309 309 309 309 308 307 306 305 302 298 297 296 295 294 293 291 289 289 290 292
312 313 310 312 304 311 310 308 306 306 307 303 303 303 302 301 302 302 303 304 305 305 306 307 307 307 307 307 307 307 307 307 308 308 307 306 304 302 298 295 295 294 291 290 289 288 288 287 287
311 309 313 310 308 312 310 310 309 307 306 305 305 303 301 300 300 300 301 303 304 305 305 305 306 306 307 306 305 305 305 305 306 306 305 305 303 300 298 295 294 293 289 288 287 287 286 286 286
310 311 310 310 310 314 312 307 304 307 308 305 303 301 300 299 300 299 300 302 304 304 304 304 304 305 305 305 304 303 303 303 304 304 304 304 302 299 296 293 292 291 288 287 287 286 285 285 285
307 310 309 312 312 309 311 311 305 305 303 302 303 302 300 300 301 300 301 302 302 303 302 303 303 304 304 304 303 302 301 301 301 302 302 302 300 298 295 291 290 289 288 286 286 285 285 284 284
Wind_Speed
12 11 8 4 4 4 1 0 2 4 3 1 3 5 8 3 2 3 5 6 20 17 14 8 8 8 8 7 8 8 9 9 9 9 9 10 11 11 12 12 12 12 13 14 14 14 14 15 14
13 9 3 2 5 3 2 3 4 3 6 7 6 4 6 3 3 7 10 17 20 18 13 11 9 8 8 8 8 8 9 9 9 9 9 9 11 12 12 11 12 12 13 13 14 14 14 15 14
10 5 3 4 4 4 4 2 6 5 6 2 4 4 3 3 4 8 13 22 19 16 13 12 9 8 8 8 7 8 8 9 9 10 10 9 10 11 11 12 12 13 14 13 13 14 14 14 14
5 3 4 4 3 2 3 4 5 5 4 6 4 8 2 3 5 12 25 21 18 16 14 10 7 6 6 6 6 8 8 8 9 9 10 9 10 10 12 12 12 12 13 14 14 14 15 15 17
3 3 4 4 2 2 2 3 5 3 3 3 1 5 4 3 15 27 24 21 21 18 14 10 7 7 7 5 6 6 8 8 8 8 9 10 10 10 10 11 11 11 12 12 13 14 14 14 16
2 3 4 3 3 2 3 3 5 3 2 2 5 6 3 12 26 24 23 20 19 18 15 11 7 5 5 5 5 6 6 7 8 8 7 8 9 9 9 10 11 11 11 11 13 14 15 15 17
5 4 5 5 6 3 3 3 4 5 5 2 0 6 5 6 18 25 22 21 18 14 12 9 7 6 5 4 4 6 6 5 5 6 5 6 6 8 9 10 10 10 11 11 12 14 16 17 17
4 4 4 2 5 3 1 3 2 4 2 1 2 5 7 7 19 23 21 19 17 14 10 8 7 4 4 3 4 5 5 5 5 6 5 5 5 6 7 8 10 9 10 11 14 14 15 17 18
2 4 3 5 6 5 1 3 2 1 5 2 2 3 8 22 21 22 21 17 15 13 11 8 6 4 3 3 3 4 5 5 4 4 5 4 5 6 7 7 8 9 10 11 13 15 16 17 17
2 4 4 1 1 4 3 4 4 4 3 3 3 4 19 21 22 19 18 16 15 13 11 7 5 4 3 2 1 3 4 4 4 4 6 6 6 5 6 6 7 8 9 11 13 13 15 16 17
3 4 2 2 2 3 4 3 2 8 2 4 8 12 15 15 14 13 12 18 18 14 11 7 5 4 4 3 1 2 3 4 5 6 7 7 7 5 4 5 7 8 9 12 14 15 16 17 18
7 6 3 2 5 3 4 5 3 2 1 5 11 12 10 11 14 15 15 17 15 14 11 9 7 5 6 4 3 2 2 4 6 6 6 6 7 8 8 8 9 9 10 14 16 18 19 19 23
7 2 5 3 8 5 5 4 3 1 3 4 12 9 9 9 9 12 16 15 14 15 12 10 9 8 7 6 4 3 3 4 5 5 5 6 6 6 7 7 8 10 10 15 18 18 19 22 23
3 6 3 5 5 4 3 1 1 2 0 5 7 7 6 9 13 12 14 15 16 16 15 12 12 10 9 8 6 5 4 3 3 3 3 3 4 4 4 6 5 8 10 16 19 19 19 22 23
4 5 4 6 4 3 1 1 3 4 5 6 5 4 4 7 14 16 21 20 20 19 16 16 14 11 11 9 8 6 4 3 1 1 1 1 2 1 1 3 3 3 5 10 17 19 23 22 23
4 4 3 3 4 3 2 5 1 5 8 8 6 5 6 6 10 14 14 15 17 17 16 15 15 14 13 11 9 8 6 4 2 1 1 1 1 1 1 1 3 4 5 5 14 22 23 23 23
6 3 2 1 3 3 3 4 3 3 5 7 8 7 7 7 12 14 15 15 16 17 15 16 16 16 15 13 11 9 7 5 2 2 3 3 3 2 2 2 2 5 8 8 14 24 23 26 23
4 4 2 3 5 3 2 9 6 6 8 9 8 9 10 11 13 20 18 17 17 18 16 16 16 18 16 14 13 11 9 6 3 6 5 5 4 5 3 3 3 4 8 9 13 23 21 26 27
6 5 4 1 3 2 5 7 11 7 7 9 11 10 12 14 13 20 23 21 19 19 20 21 20 20 20 19 16 13 13 10 7 6 8 6 5 6 5 5 4 4 7 9 13 24 27 25 29
6 6 3 1 2 3 4 11 17 9 8 14 16 14 15 10 7 14 22 24 25 25 23 23 22 24 24 23 20 14 16 13 10 8 9 8 7 7 7 6 6 6 8 11 15 26 23 23 25
4 6 2 3 3 1 7 7 5 4 6 6 9 8 9 12 12 9 18 27 29 29 27 25 26 24 25 24 21 16 13 12 12 12 10 11 8 8 8 8 8 8 8 12 15 26 22 22 22
4 1 3 2 2 2 3 5 6 4 8 6 8 8 10 9 9 8 15 22 31 34 27 24 24 25 24 24 25 24 22 19 16 14 12 11 10 10 10 9 9 9 10 11 15 22 23 23 21
3 1 2 2 3 3 3 2 7 5 6 5 5 7 8 9 10 12 17 25 31 31 28 26 25 27 25 25 26 27 24 22 17 14 13 12 13 12 11 10 10 11 11 12 13 18 25 26 26
5 3 5 4 3 3 2 4 6 3 3 5 5 6 6 6 8 9 14 16 21 25 26 25 25 25 25 25 26 29 29 26 21 16 15 13 14 13 12 11 11 11 12 12 14 16 20 25 26
4 4 3 5 4 3 1 1 11 8 10 6 10 11 7 7 7 4 5 10 15 20 25 25 25 25 24 24 24 25 26 26 25 22 19 17 17 18 14 13 13 14 13 13 14 15 17 20 22
2 4 4 3 2 4 1 5 6 5 5 7 7 7 8 7 6 5 6 10 14 18 22 25 26 28 26 25 25 24 25 26 26 25 22 20 21 19 15 15 15 14 13 13 13 12 12 13 15
2 2 1 4 2 2 3 6 9 4 3 7 8 9 9 10 9 6 5 8 13 18 23 28 29 30 28 28 26 26 26 26 28 26 24 24 23 20 18 17 16 15 15 14 13 12 12 13 12
2 5 3 3 0 4 5 5 6 5 8 7 8 9 9 7 10 7 7 8 13 17 20 24 28 32 30 28 27 26 26 26 26 25 26 25 23 22 21 20 19 18 17 15 14 14 14 13 13
2 0 4 2 3 3 3 6 6 6 1 8 10 9 8 8 7 5 9 13 15 17 21 24 27 31 31 28 27 26 25 25 25 25 26 25 24 24 22 22 21 20 19 18 16 16 16 15 15
3 5 6 4 4 4 2 8 3 2 3 5 7 4 5 5 5 6 9 12 16 20 22 25 27 30 33 31 29 28 27 26 26 26 27 26 26 25 23 23 23 23 21 20 19 20 18 17 16
Wind_Direction
329 329 324 17 70 67 117 198 286 104 90 300 89 130 116 59 129 176 140 163 151 146 148 148 126 93 76 64 67 58 48 43 41 40 38 44 54 55 50 60 51 46 44 45 47 46 51 54 60
329 345 352 72 94 89 244 285 134 120 131 126 72 75 63 81 82 115 125 144 149 147 146 142 120 97 69 64 66 58 53 43 41 47 44 52 61 60 62 60 54 49 46 44 47 52 53 55 54
321 343 71 90 104 152 163 174 132 114 119 42 98 43 88 96 134 137 152 149 146 142 145 142 124 103 64 57 62 58 51 54 45 52 53 56 62 67 71 66 56 50 40 44 50 52 54 55 52
321 13 36 81 120 208 146 128 123 117 90 60 110 82 45 335 161 156 152 151 150 145 150 142 134 113 86 48 48 54 56 56 54 55 55 62 66 72 69 67 58 48 42 48 54 53 56 63 64
294 65 62 76 102 103 62 94 137 91 87 51 74 126 95 53 139 146 155 156 152 152 153 152 148 123 106 60 42 54 55 55 56 60 64 70 75 74 70 64 56 57 51 59 60 57 60 66 59
21 89 79 149 161 114 85 147 119 108 108 87 94 117 104 139 137 152 158 159 158 156 155 152 145 128 107 72 43 49 60 70 73 72 71 74 68 67 81 70 61 59 59 65 65 67 70 72 65
143 93 140 135 143 125 132 113 98 121 117 113 52 112 118 151 149 156 159 156 157 153 153 148 140 125 101 64 51 60 67 77 82 66 67 70 70 72 69 71 71 67 66 73 67 73 79 79 70
123 95 100 111 173 150 24 79 93 89 138 281 311 149 167 168 152 154 154 153 152 153 154 147 133 121 102 100 73 56 66 70 69 68 63 62 74 82 76 75 70 84 80 81 78 78 89 87 82
130 71 134 162 158 150 145 127 38 104 105 74 23 344 121 151 153 148 146 148 153 157 158 150 135 124 121 105 82 54 56 73 71 64 56 53 77 85 77 84 70 78 87 94 87 85 96 96 92
126 82 158 189 121 127 109 98 130 116 103 91 114 100 125 146 149 143 147 155 167 171 170 168 156 151 168 146 118 58 60 68 61 55 60 68 84 86 77 86 73 81 89 106 102 93 100 103 104
356 100 156 46 72 103 118 85 58 127 225 195 167 147 141 154 155 150 163 172 181 182 185 193 189 191 196 180 169 85 65 55 67 73 72 71 73 73 80 92 90 90 95 111 112 103 108 104 100
96 76 45 27 9 55 89 107 77 360 278 282 144 142 151 171 169 160 173 184 179 184 195 196 203 211 206 202 195 151 84 73 80 76 72 69 71 75 76 80 84 93 94 121 121 109 111 104 95
76 92 54 66 67 60 77 50 150 344 347 106 124 148 160 172 175 175 185 190 189 189 201 208 210 211 209 207 203 172 126 92 78 70 56 68 70 68 73 81 88 98 103 128 127 123 114 109 97
90 88 92 41 67 56 104 116 38 193 191 106 139 160 173 186 187 180 186 196 198 199 196 214 207 209 206 208 209 189 165 126 93 70 67 62 59 56 64 77 78 100 113 136 136 132 130 118 102
101 79 62 24 23 46 332 286 227 166 161 160 179 195 199 214 198 197 199 201 203 204 204 203 208 209 209 210 207 195 185 165 117 67 78 88 64 68 82 122 104 82 103 138 149 141 136 125 118
64 59 84 348 16 358 42 269 38 173 156 192 216 216 231 247 217 214 216 213 213 214 210 205 207 211 210 211 209 201 195 198 228 287 250 255 274 283 261 148 137 144 155 166 152 148 134 132 122
25 107 96 5 45 9 79 279 35 170 187 213 217 231 242 254 247 229 215 214 216 212 215 215 212 210 206 203 205 204 205 219 253 274 261 262 263 260 256 228 187 174 171 183 158 155 151 130 111
154 109 32 317 348 29 310 270 273 193 196 224 225 225 227 233 237 233 225 222 217 216 214 216 215 215 209 204 199 202 208 216 237 294 253 259 266 264 263 246 212 199 191 184 166 161 147 131 119
112 99 101 284 338 252 253 280 276 232 218 230 232 232 232 232 230 233 230 227 225 223 218 214 214 216 211 200 193 204 211 214 223 262 275 258 256 254 249 248 233 219 205 191 168 155 145 133 130
83 96 34 334 303 210 317 276 265 213 222 218 221 225 234 238 211 214 225 226 225 227 225 218 217 220 216 215 217 216 219 224 234 249 267 257 250 247 248 239 231 220 209 199 176 162 147 148 154
48 106 131 210 299 70 318 294 297 289 253 276 251 244 238 232 236 224 210 221 226 228 226 224 220 221 222 223 219 216 217 226 225 238 252 256 244 244 239 235 231 223 210 200 193 184 172 170 184
80 286 152 147 69 277 25 286 300 319 299 249 253 234 241 229 230 220 212 214 220 227 225 227 224 221 223 223 224 222 224 222 235 243 245 251 246 244 243 236 230 225 214 202 199 197 193 189 185
139 109 80 74 85 19 7 67 272 337 323 337 326 254 254 245 232 229 215 221 227 226 221 221 221 221 223 222 227 229 235 243 247 239 242 247 248 244 243 241 239 231 219 212 210 203 204 204 205
136 97 48 50 67 29 307 112 291 290 287 325 318 296 304 297 252 241 235 228 225 228 221 220 219 222 222 224 227 231 236 241 237 233 236 245 250 249 249 246 243 237 226 213 210 207 205 209 212
76 63 346 360 13 224 102 143 253 274 274 262 284 301 333 334 321 266 207 208 221 223 219 218 220 227 226 228 230 230 238 242 242 242 247 243 247 250 247 243 241 238 232 225 215 204 203 206 208
109 133 143 255 280 280 122 233 249 226 282 270 286 293 313 333 334 296 232 221 227 233 227 224 225 231 230 233 237 238 242 246 248 245 247 254 250 250 245 240 238 239 236 228 218 210 197 194 197
177 164 165 95 53 25 248 291 285 329 355 7 10 19 353 345 346 322 267 241 243 240 235 229 228 234 236 238 241 242 243 244 247 249 250 250 244 240 238 234 233 230 229 224 222 215 205 192 186
148 160 66 12 334 286 288 272 235 307 325 349 359 356 343 343 338 336 304 265 254 253 249 242 238 239 242 244 245 246 247 246 248 249 248 248 240 236 235 231 226 224 223 218 213 211 204 197 186
65 134 54 129 158 215 284 259 222 219 296 346 339 349 347 343 350 337 308 289 272 260 250 247 243 242 243 246 247 248 249 248 246 246 248 244 241 234 234 231 226 220 218 217 214 213 206 202 195
160 181 165 163 225 232 246 261 223 286 343 298 338 341 255 250 277 270 262 271 272 266 260 253 249 244 244 246 246 245 245 244 242 241 241 239 237 235 234 230 225 222 216 219 218 212 209 207 204